Regional Weather Roundup
Issued by NWS

Home | Current Version | Previous Version | Graphics & Text | Print | Product List | Glossary On
Versions: 1 2 3 4 5 6 7 8 9 10 11 12 13 14 15 16 17 18 19 20 21 22 23 24 25 26 27 28 29 30 31 32 33 34 35 36 37 38 39 40 41 42 43 44 45 46 47 48 49 50
000
ASUS43 KFSD 231210
RWRSD

WEATHER ROUNDUP FOR SOUTH DAKOTA
NATIONAL WEATHER SERVICE SIOUX FALLS SD
600 AM CST MON JAN 23 2017

NOTE: "FAIR" INDICATES FEW OR NO CLOUDS BELOW 12,000 FEET WITH NO
SIGNIFICANT WEATHER AND/OR OBSTRUCTIONS TO VISIBILITY.


SDZ001>005-009-010-012>017-231300-
NORTHWEST AND NORTH CENTRAL SOUTH DAKOTA

CITY           SKY/WX    TMP DP  RH WIND       PRES   REMARKS
BUFFALO          N/A     19  13  77 CALM      29.65R
FAITH            N/A     24  21  88 SE7       29.76F WCI  16
MOBRIDGE       CLOUDY    29  23  78 W5        29.77F WCI  24
$$

SDZ012>016-024>037-041>051-057-063-072>074-231300-
SOUTHWEST AND SOUTH CENTRAL SOUTH DAKOTA

CITY           SKY/WX    TMP DP  RH WIND       PRES   REMARKS
RAPID CTY ARPT CLOUDY    21  19  92 SE9       29.68F WCI  11
PIERRE         CLOUDY    26  22  84 SE6       29.80F WCI  19
CUSTER         CLOUDY    27  12  53 CALM      29.62F
ELLSWORTH AFB  CLOUDY    23  23 100 SE9       29.67F WCI  13
PHILIP         FOG       22  21  96 E9        29.78S VSB 3/4 WCI  12
PINE RIDGE     CLOUDY    28  20  71 SW5       29.69F WCI  23
SPEARFISH      MOCLDY    19  18  93 W6        29.65R WCI  11
WINNER         FOG       25  23  92 SE7       29.82F VSB 1   WCI  17
$$

SDZ004>011-016>023-039-040-231300-
NORTHEAST SOUTH DAKOTA

CITY           SKY/WX    TMP DP  RH WIND       PRES   REMARKS
ABERDEEN       CLOUDY    30  24  78 N5        29.82F WCI  25
WATERTOWN      CLOUDY    29  26  89 NW8       29.80F WCI  21
BROOKINGS      CLOUDY    29  27  92 NW6       29.81F WCI  23
SISSETON         N/A     33  29  85 N9        29.81F WCI  25
$$

SDZ017-020-022-023-036>040-048>070-231300-
SOUTHEAST SOUTH DAKOTA

CITY           SKY/WX    TMP DP  RH WIND       PRES   REMARKS
SIOUX FALLS    FLURRIES  31  29  92 NW7       29.84F WCI  24
HURON          CLOUDY    29  26  89 NW7       29.84S WCI  22
CHAMBERLAIN    CLOUDY    30  28  90 CALM      29.83F
MITCHELL       CLOUDY    30  26  85 NW6       29.86F WCI  24
YANKTON        CLOUDY    30  25  80 NW3       29.86F
$$

ABBREVIATIONS USED IN REMARKS
   TC - TEMPERATURE IN CELSIUS
  WCI - WIND CHILL INDEX
   HX - HEAT INDEX
  VSB - VISIBILITY





USA.gov is the U.S. government's official web portal to all federal, state and local government web resources and services.